Weather Service Report


471 
ASUS45 KABQ 221910
RWRNM 
NEW MEXICO REGIONAL WEATHER ROUNDUP
NATIONAL WEATHER SERVICE ALBUQUERQUE NM
1200 PM MST WED FEB 22 2017

NOTE: "FAIR" MEANS FEW OR NO CLOUDS BELOW 12,000 FEET AGL WITH NO
       SIGNIFICANT WEATHER OR OBSTRUCTIONS TO VISION.

      THIS PRODUCT IS RELEASED AS TWO VERSIONS.  ONE VERSION NEAR
      THE TOP OF THE HOUR CONTAINING PRELIMINARY DATA FROM ALBUQUERQUE
      AND OTHER STATIONS.  A FINAL VERSION WITH ADDITIONAL DATA IS 
      ISSUED ABOUT 10 MINUTES AFTER THE HOUR.
 
NMZ501-503-504-510>518-222000-
NORTHWEST PLATEAU/NORTHCENTRAL MOUNTAINS
  
CITY           SKY/WX    TMP DP  RH WIND       PRES   REMARKS
FARMINGTON     FAIR      56  39  53 CALM      30.01F                  
LOS ALAMOS     FAIR      53  28  37 SW10G20   30.10F                  
SANTA FE       FAIR      59  34  39 SW14      30.07F                  
TAOS             N/A     52  27  37 W10       30.09F                  
ANGEL FIRE     CLOUDY    45  24  43 SW13G21   30.12F                  

$$
NMZ402-403-502-505>509-222000-
WESTCENTRAL MOUNTAINS/SOUTHWEST MOUNTAINS
  
CITY           SKY/WX    TMP DP  RH WIND       PRES   REMARKS
GALLUP         FAIR      55  37  50 SW18      30.10F                  
GRANTS         FAIR      58  32  37 W16G29    30.10F                  
SILVER CITY    FAIR      67  33  27 W7        30.12F                  

$$
NMZ407-409-411-412-222000-
SOUTHERN DESERTS
  
CITY           SKY/WX    TMP DP  RH WIND       PRES   REMARKS
DEMING         FAIR      71  35  26 SW12      30.08F                  
LAS CRUCES     FAIR      71  32  24 SW9G17    30.09F                  
HOLLOMAN AFB   FAIR      69  36  29 S8        30.09F                  
ALAMOGORDO     FAIR      70  37  30 S8        30.07F                  
T OR C         FAIR      68  35  29 S9        30.06F                  

$$
NMZ519>523-222000-
CENTRAL VALLEYS/CENTRAL HIGHLANDS
  
CITY           SKY/WX    TMP DP  RH WIND       PRES   REMARKS
ALBUQUERQUE    PTSUNNY   59  34  39 S5        30.07F                  
DOUBLE EAGLE   PTSUNNY   61  37  41 W7        30.09F                  
MORIARTY ARPT  FAIR      63  33  32 W15G24    30.09F                  
CLINES CORNERS FAIR      58  32  37 W25G31    30.10F                  
BELEN          FAIR      65  30  27 S6        30.05F                  
SOCORRO        FAIR      68  33  26 S10       30.05F                  

$$
NMZ524>526-539-540-222000-
SOUTHCENTRAL MOUNTAINS
  
CITY           SKY/WX    TMP DP  RH WIND       PRES   REMARKS
RUIDOSO        FAIR      66  25  20 NW16G25   30.13F                  

$$
NMZ527>531-222000-
NORTHEAST HIGHLANDS/NORTHEAST PLAINS
  
CITY           SKY/WX    TMP DP  RH WIND       PRES   REMARKS
RATON          FAIR      65  14  14 W25G40    29.95F                  
CLAYTON        FAIR      75  13   9 W21G33    29.88F                  

$$
NMZ532>537-222000-
EASTCENTRAL PLAINS
  
CITY           SKY/WX    TMP DP  RH WIND       PRES   REMARKS
TUCUMCARI      FAIR      78  30  17 W26G36    29.90F                  
CANNON AFB     SUNNY     74  34  22 W25G33    29.94F                  
CLOVIS AIRPORT FAIR      75  36  23 W29G35    29.94F                  

$$
NMZ028-029-538-222000-
SOUTHEAST PLAINS
  
CITY           SKY/WX    TMP DP  RH WIND       PRES   REMARKS
ROSWELL        FAIR      78  32  18 SE9       29.98                   
ARTESIA        FAIR      79  32  18 S14       29.97F                  
CARLSBAD       FAIR      81  26  13 S5        29.96F                  
HOBBS          SUNNY     77  32  19 W10       30.00F                  


$$
  

Return to Home page


Western Regional Climate Center, wrcc@dri.edu